Previsão horária em Centreville

Hoje, 25 Julho, Domingo

Tempo Temperatura Precipitação Vento Pressão Humidade
00:00 +21°C° 0.7 mm 4 m/s 752 mmHg 89%
01:00 +21°C° 0 mm 4 m/s 752 mmHg 93%
02:00 +21°C° 0 mm 3 m/s 752 mmHg 93%
03:00 +20°C° 0 mm 3 m/s 751 mmHg 93%
04:00 +20°C° 0 mm 3 m/s 751 mmHg 94%
05:00 +21°C° 0 mm 3 m/s 751 mmHg 92%
06:00 +21°C° 0 mm 3 m/s 751 mmHg 90%
07:00 +22°C° 0 mm 3 m/s 751 mmHg 89%
08:00 +26°C° 0 mm 3 m/s 751 mmHg 76%
09:00 +29°C° 0 mm 2 m/s 751 mmHg 63%
10:00 +31°C° 0 mm 2 m/s 751 mmHg 50%
11:00 +34°C° 0 mm 2 m/s 750 mmHg 45%
12:00 +36°C° 0 mm 2 m/s 750 mmHg 41%
13:00 +37°C° 0 mm 2 m/s 749 mmHg 36%
14:00 +36°C° 0 mm 2 m/s 749 mmHg 40%
15:00 +34°C° 0 mm 1 m/s 749 mmHg 44%
16:00 +33°C° 0 mm 1 m/s 749 mmHg 48%
17:00 +31°C° 0.1 mm 1 m/s 749 mmHg 57%
18:00 +29°C° 0.1 mm 1 m/s 749 mmHg 66%
19:00 +27°C° 0.1 mm 1 m/s 749 mmHg 74%
20:00 +27°C° 0.3 mm 1 m/s 750 mmHg 78%
21:00 +26°C° 0.3 mm 1 m/s 750 mmHg 83%
22:00 +25°C° 0.3 mm 1 m/s 750 mmHg 87%
23:00 +25°C° 0 mm 1 m/s 750 mmHg 88%

Amanhã, 26 Julho, Segunda-feira

Tempo Temperatura Precipitação Vento Pressão Humidade
00:00 +24°C° 0 mm 1 m/s 750 mmHg 89%
01:00 +24°C° 0 mm 1 m/s 750 mmHg 90%
02:00 +24°C° 0 mm 1 m/s 750 mmHg 91%
03:00 +23°C° 0 mm 1 m/s 750 mmHg 92%
04:00 +23°C° 0 mm 1 m/s 750 mmHg 93%
05:00 +24°C° 0 mm 1 m/s 750 mmHg 90%
06:00 +25°C° 0 mm 1 m/s 751 mmHg 87%
07:00 +26°C° 0 mm 1 m/s 751 mmHg 84%
08:00 +28°C° 0 mm 1 m/s 751 mmHg 72%
09:00 +30°C° 0 mm 1 m/s 751 mmHg 61%
10:00 +32°C° 0 mm 1 m/s 751 mmHg 50%
11:00 +33°C° 0 mm 1 m/s 751 mmHg 45%
12:00 +34°C° 0 mm 1 m/s 751 mmHg 40%
13:00 +36°C° 0 mm 2 m/s 750 mmHg 35%
14:00 +35°C° 0 mm 1 m/s 750 mmHg 38%
15:00 +34°C° 0 mm 1 m/s 750 mmHg 40%
16:00 +33°C° 0 mm 1 m/s 750 mmHg 43%
17:00 +32°C° 0 mm 1 m/s 750 mmHg 48%
18:00 +30°C° 0 mm 1 m/s 750 mmHg 53%
19:00 +29°C° 0 mm 1 m/s 751 mmHg 58%
20:00 +28°C° 0 mm 1 m/s 751 mmHg 63%
21:00 +27°C° 0 mm 1 m/s 751 mmHg 67%
22:00 +26°C° 0 mm 1 m/s 752 mmHg 71%
23:00 +25°C° 0 mm 1 m/s 752 mmHg 74%

Depois de amanhã, 27 Julho, Terça-feira

Tempo Temperatura Precipitação Vento Pressão Humidade
00:00 +24°C° 0 mm 1 m/s 752 mmHg 77%
01:00 +24°C° 0 mm 1 m/s 752 mmHg 80%
02:00 +23°C° 0 mm 1 m/s 752 mmHg 79%
03:00 +23°C° 0 mm 1 m/s 752 mmHg 78%
04:00 +23°C° 0 mm 1 m/s 752 mmHg 77%
05:00 +24°C° 0 mm 1 m/s 753 mmHg 72%
06:00 +24°C° 0 mm 1 m/s 753 mmHg 67%
07:00 +25°C° 0 mm 1 m/s 754 mmHg 62%
08:00 +28°C° 0 mm 1 m/s 754 mmHg 56%
09:00 +30°C° 0 mm 1 m/s 754 mmHg 49%
10:00 +33°C° 0 mm 1 m/s 754 mmHg 43%
11:00 +34°C° 0 mm 1 m/s 753 mmHg 38%
12:00 +36°C° 0 mm 1 m/s 753 mmHg 34%
13:00 +37°C° 0 mm 1 m/s 753 mmHg 29%
14:00 +37°C° 0 mm 1 m/s 752 mmHg 28%
15:00 +37°C° 0 mm 1 m/s 752 mmHg 26%
16:00 +37°C° 0 mm 1 m/s 752 mmHg 24%
17:00 +35°C° 0 mm 1 m/s 752 mmHg 31%
18:00 +34°C° 0 mm 2 m/s 752 mmHg 37%
19:00 +31°C° 0 mm 2 m/s 752 mmHg 44%
20:00 +29°C° 0 mm 2 m/s 752 mmHg 54%
21:00 +27°C° 0 mm 2 m/s 753 mmHg 64%
22:00 +26°C° 0 mm 1 m/s 753 mmHg 74%
23:00 +25°C° 0.1 mm 1 m/s 753 mmHg 77%

28 Julho, Quarta-feira

Tempo Temperatura Precipitação Vento Pressão Humidade
00:00 +25°C° 0.1 mm 1 m/s 753 mmHg 79%
01:00 +24°C° 0.1 mm 1 m/s 753 mmHg 82%
02:00 +23°C° 0.1 mm 1 m/s 753 mmHg 83%
03:00 +23°C° 0.1 mm 1 m/s 753 mmHg 84%
04:00 +21°C° 0.1 mm 2 m/s 754 mmHg 84%
05:00 +23°C° 0 mm 2 m/s 754 mmHg 80%
06:00 +24°C° 0 mm 1 m/s 754 mmHg 76%
07:00 +25°C° 0 mm 1 m/s 755 mmHg 71%
08:00 +27°C° 0 mm 1 m/s 755 mmHg 61%
09:00 +30°C° 0 mm 1 m/s 755 mmHg 50%
10:00 +32°C° 0 mm 1 m/s 755 mmHg 40%
11:00 +34°C° 0 mm 1 m/s 754 mmHg 36%
12:00 +36°C° 0 mm 1 m/s 754 mmHg 33%
13:00 +37°C° 0 mm 1 m/s 753 mmHg 30%
14:00 +37°C° 0 mm 1 m/s 753 mmHg 29%
15:00 +38°C° 0 mm 2 m/s 752 mmHg 28%
16:00 +38°C° 0 mm 2 m/s 752 mmHg 27%
17:00 +36°C° 0 mm 2 m/s 752 mmHg 35%
18:00 +34°C° 0 mm 3 m/s 752 mmHg 44%
19:00 +32°C° 0 mm 4 m/s 751 mmHg 52%
20:00 +29°C° 0.2 mm 3 m/s 752 mmHg 63%
21:00 +27°C° 0.2 mm 3 m/s 752 mmHg 74%
22:00 +25°C° 0.2 mm 3 m/s 753 mmHg 85%
23:00 +25°C° 0 mm 3 m/s 752 mmHg 86%

29 Julho, Quinta-feira

Tempo Temperatura Precipitação Vento Pressão Humidade
00:00 +23°C° 0 mm 4 m/s 752 mmHg 87%
01:00 +22°C° 0 mm 4 m/s 751 mmHg 89%
02:00 +22°C° 0 mm 3 m/s 751 mmHg 90%
03:00 +21°C° 0 mm 3 m/s 751 mmHg 91%
04:00 +21°C° 0 mm 2 m/s 751 mmHg 92%
05:00 +23°C° 0 mm 2 m/s 751 mmHg 88%
06:00 +23°C° 0 mm 2 m/s 751 mmHg 85%
07:00 +24°C° 0 mm 2 m/s 751 mmHg 81%
08:00 +26°C° 0 mm 2 m/s 751 mmHg 74%
09:00 +28°C° 0 mm 2 m/s 751 mmHg 67%
10:00 +29°C° 0 mm 2 m/s 750 mmHg 59%
11:00 +31°C° 0 mm 3 m/s 750 mmHg 52%
12:00 +34°C° 0 mm 3 m/s 749 mmHg 44%
13:00 +36°C° 0 mm 4 m/s 748 mmHg 36%
14:00 +36°C° 0 mm 4 m/s 748 mmHg 35%
15:00 +37°C° 0 mm 3 m/s 747 mmHg 33%
16:00 +37°C° 0 mm 3 m/s 747 mmHg 32%
17:00 +34°C° 0.1 mm 3 m/s 747 mmHg 47%
18:00 +30°C° 0.1 mm 3 m/s 747 mmHg 61%
19:00 +27°C° 0.1 mm 3 m/s 747 mmHg 76%
20:00 +25°C° 0.9 mm 3 m/s 748 mmHg 80%
21:00 +24°C° 0.9 mm 2 m/s 748 mmHg 85%
22:00 +23°C° 0.9 mm 2 m/s 748 mmHg 90%
23:00 +22°C° 0 mm 3 m/s 748 mmHg 91%

30 Julho, Sexta-feira

Tempo Temperatura Precipitação Vento Pressão Humidade
00:00 +22°C° 0 mm 3 m/s 748 mmHg 91%
01:00 +23°C° 0 mm 4 m/s 748 mmHg 92%
02:00 +22°C° 0 mm 4 m/s 748 mmHg 90%
03:00 +22°C° 0 mm 4 m/s 749 mmHg 89%
04:00 +22°C° 0 mm 4 m/s 749 mmHg 87%
05:00 +23°C° 0 mm 4 m/s 749 mmHg 82%
06:00 +23°C° 0 mm 4 m/s 750 mmHg 77%
07:00 +25°C° 0 mm 5 m/s 750 mmHg 72%
08:00 +26°C° 0 mm 5 m/s 751 mmHg 63%
09:00 +27°C° 0 mm 5 m/s 751 mmHg 53%
10:00 +28°C° 0 mm 5 m/s 751 mmHg 43%
11:00 +29°C° 0 mm 5 m/s 751 mmHg 38%
12:00 +32°C° 0 mm 5 m/s 751 mmHg 32%
13:00 +33°C° 0 mm 4 m/s 751 mmHg 26%
14:00 +33°C° 0 mm 4 m/s 751 mmHg 26%
15:00 +33°C° 0 mm 4 m/s 751 mmHg 25%
16:00 +33°C° 0 mm 4 m/s 751 mmHg 25%
17:00 +30°C° 0 mm 4 m/s 751 mmHg 29%
18:00 +28°C° 0 mm 4 m/s 751 mmHg 33%
19:00 +27°C° 0 mm 3 m/s 752 mmHg 37%
20:00 +25°C° 0 mm 3 m/s 752 mmHg 41%
21:00 +22°C° 0 mm 3 m/s 753 mmHg 45%
22:00 +21°C° 0 mm 2 m/s 754 mmHg 48%
23:00 +19°C° 0 mm 2 m/s 754 mmHg 52%
Mostrar mais

Necessitamos do seu Consentimento

A Meteoprog e os seus Fornecedores de Serviços podem armazenar e aceder a dados pessoais como cookies, identificadores do dispositivo ou outras tecnologias semelhantes existentes no seu dispositivo e processar estes dados para personalizar conteúdos e anúncios, assim como funcionalidades nas redes sociais e análise de tráfego.

  • Armazenar e/ou aceder a informações no seu dispositivo

    Os cookies, identificadores do dispositivo ou outras informações podem ser armazenados ou acedidos no seu dispositivo, para os fins acima indicados.

  • Anúncios e conteúdos personalizados, medição de anúncios e conteúdos, dados sobre o público-alvo e desenvolvimento de produtos

    Os anúncios e os conteúdos podem ser personalizados com base num perfil. Podem ser adicionados dados adicionais para uma maior personalização dos anúncios e dos conteúdos. A eficácia dos anúncios e dos conteúdos pode ser medida. Podem ser obtidas informações sobre o público que visualizou os anúncios e os conteúdos. Estes dados podem ser usados para desenvolver ou melhorar sistemas, softwares ou a experiência do utilizador.

Ao clicar em "Eu concordo”, permitirá o uso de cookies, identificadores do dispositivo e web beacons mencionados ou outras tecnologias semelhantes. As configurações do navegador do seu dispositivo podem ser alteradas.

Para certos fins, podem ser invocados interesses legítimos ao invés de consentimento. Pode ler mais informação sobre este assunto na nossa Política de Privacidade e Cookies.